Location: Sungai Bunut
(2.6333°N, 113.7333°E)
Time: 01:49:38
(UTC+00:00)

S-56A Canister/Altair - Pass Details

Date: 05 December 2023
Orbit: 640 x 2488 km, 38.9° (Epoch: 24 February)

Event Time Altitude Azimuth Distance (km) Brightness Sun altitude
Rises 14:00:45 0° 278° (W) 4,680 11.9 -51.8°
Reaches altitude 10° 14:04:13 10° 266° (W) 3,973 11.5 -52.5°
Maximum altitude 14:12:58 27° 213° (SSW) 3,376 10.9 -54.3°
Drops below altitude 10° 14:24:00 10° 162° (SSE) 5,031 11.7 -56.5°
Sets 14:29:14 0° 150° (SSE) 6,143 12.2 -57.5°
